Temp
18 18 19 19 19 19 19 19 19 20 20 20 20 20 19 19 19 19 19 19 20 20 20 21 21 21 21 21 21 20 20 19
19 18 18 19 19 19 19 19 19 20 20 20 20 20 20 19 19 19 19 20 20 20 20 20 20 20 20 20 19 19 19 18
20 19 19 18 19 19 19 20 20 20 20 21 20 20 20 19 19 19 19 19 19 19 20 20 19 19 20 19 18 18 18 16
20 20 19 20 19 20 20 20 19 19 19 20 19 20 20 19 19 19 19 19 19 19 19 20 19 19 19 18 17 17 16 15
19 19 20 21 21 21 20 19 18 18 18 18 18 19 19 19 19 19 19 19 19 19 20 19 19 19 18 17 16 16 15 14
17 18 19 20 20 19 19 19 18 18 17 18 18 18 18 19 19 19 19 19 20 19 19 19 19 18 17 17 16 14 15 14
18 18 17 17 18 18 18 17 17 16 15 16 16 17 17 18 18 19 19 19 19 19 19 19 18 17 16 16 15 14 14 14
16 16 16 17 17 16 16 16 17 16 15 15 15 16 16 17 18 18 17 17 18 18 18 18 18 17 16 15 14 14 15 15
14 15 16 16 16 16 17 17 17 16 15 14 14 15 16 17 16 16 16 17 17 18 19 19 18 17 16 16 15 15 15 15
15 15 16 16 16 16 16 17 17 16 15 14 13 14 15 15 15 15 16 16 16 17 18 17 17 17 16 17 16 16 15 15
15 15 15 16 16 16 16 16 16 15 14 13 13 13 14 14 14 15 15 15 15 16 17 17 17 17 17 17 17 16 16 15
14 14 15 15 16 16 15 15 15 14 13 12 13 13 14 14 14 14 14 14 14 15 16 16 16 16 18 16 16 16 16 15
13 13 13 14 14 15 14 13 13 12 12 11 12 12 13 13 13 13 12 12 13 14 15 14 14 15 16 17 16 16 16 15
13 13 13 14 14 14 14 13 12 11 11 11 11 12 12 12 12 12 12 12 12 13 14 14 13 14 13 15 14 15 16 15
13 13 14 14 13 12 13 12 12 12 11 11 10 10 10 11 11 11 11 11 11 12 13 13 14 13 13 13 11 11 14 16
14 13 14 14 13 13 13 13 12 11 10 10 9 10 10 10 10 10 10 10 10 11 11 12 12 12 13 13 13 12 10 11
15 15 14 13 13 13 13 12 11 11 10 9 9 9 9 9 10 10 9 9 9 10 10 11 11 11 11 12 12 12 11 11
16 15 15 14 13 13 12 11 10 10 9 9 8 9 9 9 9 9 9 9 9 9 9 9 10 10 11 10 10 10 10 10
17 16 15 14 13 13 12 11 10 9 9 9 9 8 8 9 9 8 9 9 9 9 9 8 8 8 9 10 9 9 9 9
17 17 16 15 13 13 12 11 11 10 10 10 10 9 8 8 8 8 8 9 9 9 9 8 8 8 8 8 9 8 8 8
Height
816 817 818 820 823 825 827 829 830 831 833 834 835 836 837 836 836 837 837 837 837 837 837 837 836 837 837 836 837 837 836 840
816 818 821 822 824 826 828 831 831 832 833 834 835 837 837 837 837 838 838 838 837 837 837 837 837 838 838 838 838 837 837 837
817 820 823 825 825 828 829 832 833 833 834 835 836 838 839 840 839 839 839 839 838 838 838 838 838 838 838 839 839 838 837 838
819 822 824 826 828 828 830 831 836 835 835 837 838 837 839 841 840 840 840 840 840 839 839 838 839 840 839 840 841 839 839 839
822 824 825 828 830 830 832 833 836 837 837 837 838 838 839 841 841 841 841 841 841 841 841 840 840 840 839 840 841 840 841 840
821 824 827 828 830 829 829 831 835 838 838 838 839 840 840 841 840 841 840 840 840 842 841 840 841 840 840 841 842 842 842 843
822 825 827 830 832 833 832 834 836 839 839 839 840 841 841 841 841 841 841 840 841 841 841 842 841 841 841 842 843 843 844 844
825 828 829 832 834 836 836 836 838 840 840 841 840 841 842 843 842 842 841 841 841 841 842 843 841 842 844 846 845 846 847 846
827 829 830 833 834 837 838 839 841 841 842 843 842 841 844 844 844 844 844 843 841 842 841 843 844 844 846 847 848 849 850 851
828 829 832 833 835 838 839 840 843 843 844 845 844 844 844 844 845 846 846 844 842 842 842 843 845 846 848 849 849 850 852 852
824 833 835 833 834 839 838 841 845 844 844 846 846 846 848 847 847 848 846 846 844 843 843 844 845 846 847 849 850 851 853 853
821 829 833 833 836 839 837 840 842 844 844 846 846 847 849 850 849 848 847 846 847 848 846 846 845 845 848 849 850 852 853 855
828 830 831 833 838 840 837 840 843 844 845 844 846 847 848 851 850 851 849 847 848 851 851 851 849 845 845 848 849 851 853 854
822 827 829 833 838 839 836 841 844 846 844 842 847 849 850 853 852 853 851 851 846 852 853 856 850 849 849 846 850 854 855 853
822 825 828 835 835 837 838 843 846 849 843 840 848 851 853 853 854 855 853 852 852 854 855 855 852 854 853 853 854 858 855 855
820 825 830 833 832 836 840 842 845 844 846 846 852 849 854 856 858 855 853 855 856 855 858 857 856 856 858 859 860 862 862 861
817 823 827 831 833 835 839 840 844 845 847 852 851 852 858 858 855 856 857 857 860 860 859 857 859 862 862 863 862 864 864 864
813 819 825 830 833 835 837 839 841 846 851 853 854 856 856 856 858 861 858 862 861 862 863 862 861 863 868 866 867 869 870 869
810 817 822 827 831 834 836 838 842 847 850 852 853 856 858 858 860 861 864 864 864 863 864 865 865 865 870 869 871 871 872 870
807 813 818 825 829 833 836 839 842 845 849 852 853 856 859 860 862 864 864 864 865 867 868 867 867 870 871 874 874 874 872 874
Wind_Speed
16 17 17 15 13 12 10 9 8 8 8 7 7 6 6 6 6 6 6 6 5 5 5 5 5 5 6 6 10 13 18 14
18 14 12 13 13 11 9 8 8 8 8 8 6 5 3 4 4 3 4 4 5 5 6 6 6 7 7 9 14 15 14 11
15 18 16 9 13 11 10 9 9 8 8 7 5 2 3 2 4 4 4 5 5 7 8 8 9 9 4 10 11 9 9 15
14 16 15 11 11 13 9 9 6 6 6 6 7 3 5 5 7 7 8 7 5 9 9 11 8 7 4 7 10 10 14 20
12 12 10 7 9 10 12 17 13 10 4 7 10 9 8 6 6 7 6 7 6 6 6 7 9 9 8 13 10 10 13 15
13 13 9 9 5 11 12 11 8 3 7 7 6 6 6 8 4 5 7 7 8 8 7 9 7 9 10 8 9 10 10 13
11 10 11 12 9 8 10 8 7 9 10 9 9 9 8 9 10 9 9 9 10 9 6 9 8 15 13 10 8 10 9 11
11 11 11 10 9 9 10 11 14 13 10 11 9 10 8 9 8 10 9 10 9 7 6 4 9 10 12 10 12 15 15 13
11 12 13 12 13 13 15 15 13 11 12 12 13 10 11 11 9 9 10 9 9 6 5 6 11 10 11 11 13 12 12 12
11 10 12 14 14 13 14 13 12 13 12 13 13 13 13 11 10 9 11 10 9 9 8 13 11 9 9 7 12 12 12 13
16 13 13 15 15 13 17 15 13 13 12 13 13 14 14 10 12 13 12 13 14 13 10 11 11 8 11 10 10 10 11 12
19 15 15 16 16 16 18 17 15 14 15 12 14 14 14 12 16 15 14 16 16 15 12 11 12 9 8 9 8 8 9 10
18 18 15 15 11 13 13 15 11 12 13 15 14 15 15 15 14 15 15 19 15 15 13 12 12 7 6 12 9 10 10 11
18 17 17 16 14 12 16 16 13 13 16 19 16 14 15 14 15 15 15 16 19 15 19 12 21 19 7 5 3 7 9 7
19 18 16 13 13 13 13 16 16 14 16 18 14 14 13 15 14 14 17 19 19 18 17 18 15 20 25 8 4 2 11 6
19 19 17 18 14 14 15 15 14 17 16 16 14 16 13 14 13 15 16 15 17 17 17 20 19 20 12 17 14 14 3 4
26 23 19 18 18 19 17 20 17 16 13 12 14 14 13 14 17 17 18 18 18 18 19 19 21 20 20 13 14 14 19 6
26 25 21 20 17 18 17 19 17 17 15 14 15 14 15 15 14 15 18 15 17 18 18 20 18 19 16 17 17 9 12 10
27 25 23 21 18 17 16 18 18 18 17 14 14 13 12 14 14 14 14 15 16 17 17 19 18 18 15 16 13 13 12 13
27 27 26 23 21 18 19 19 19 17 15 16 13 13 11 12 14 13 14 15 15 14 15 15 16 14 14 13 11 10 11 10
Wind_Direction
133 133 134 131 127 126 122 116 107 95 87 80 75 75 75 81 80 73 73 68 53 42 33 20 3 355 352 353 354 341 332 19
142 139 128 133 131 125 117 108 102 91 82 77 77 87 71 79 66 52 35 34 25 11 1 358 359 351 338 340 358 4 42 53
147 145 137 142 128 117 103 96 86 82 75 53 22 20 27 52 50 20 18 13 25 29 24 15 12 2 343 17 27 63 66 61
143 145 135 125 138 120 101 96 81 76 72 40 38 89 41 57 23 37 26 5 9 19 19 19 39 26 25 47 76 50 77 79
132 133 127 146 140 157 106 96 99 81 79 59 33 38 37 38 23 16 0 3 19 2 360 348 22 62 75 74 55 47 66 80
102 113 101 102 95 85 96 94 88 81 48 47 75 42 12 4 7 2 10 38 19 11 11 14 74 76 62 41 58 76 52 67
107 122 101 90 94 92 108 113 102 69 54 48 43 29 32 17 17 27 31 20 17 20 27 13 76 77 54 44 51 79 78 71
132 130 146 148 137 128 107 94 79 68 52 47 60 48 52 31 36 34 33 21 30 18 23 32 80 60 65 55 63 61 56 46
142 139 128 121 103 93 80 79 78 77 55 57 56 71 52 48 53 45 41 32 42 27 45 84 96 82 89 84 74 71 66 59
122 130 118 106 97 100 110 89 86 80 68 54 56 58 63 64 53 55 43 43 55 45 34 77 69 70 77 89 100 76 77 61
136 138 134 123 123 120 102 95 85 84 79 67 55 63 59 58 67 55 56 49 49 47 36 58 107 131 122 97 88 81 72 68
132 141 143 130 128 124 117 110 111 96 88 82 78 72 68 61 59 64 64 68 56 45 47 40 40 11 95 113 105 96 88 74
161 154 142 126 134 134 118 111 118 105 94 87 81 86 82 74 69 64 62 69 59 54 55 49 36 19 348 152 139 124 115 83
164 168 154 143 151 130 124 125 119 116 103 86 78 83 81 81 72 66 70 69 76 60 49 77 56 42 7 316 148 130 113 93
161 166 154 155 147 145 137 125 120 121 93 89 88 86 85 87 82 80 76 67 66 60 51 55 72 53 47 49 29 14 334 124
165 165 162 156 148 150 142 140 115 106 101 109 102 97 93 99 101 87 83 85 79 77 66 63 62 51 49 50 68 61 15 346
171 169 165 164 166 157 147 137 138 132 129 117 102 101 103 99 92 91 87 77 74 77 77 73 68 60 51 41 36 47 27 33
169 169 167 166 163 160 160 152 141 135 140 128 119 109 98 93 97 95 90 87 83 76 74 73 72 71 60 54 52 40 19 22
166 171 167 167 164 160 160 151 148 152 146 144 124 116 109 107 102 93 97 89 82 81 72 67 63 62 54 52 49 43 26 18
172 176 163 167 164 161 154 153 153 155 155 147 137 125 123 118 110 107 98 94 89 78 79 68 69 59 57 46 43 36 28 17